Showing default

EXPLORER 29 (GEOS 1), 1726

Orbit data source: Space-Track

EXPLORER 29 (GEOS 1), 1726 is a payload satellite owned by GSFC (US) in LEO that was launched on Sat, 06 Nov 1965 UTC via a THOR DELTA E launch vehicle from the Air Force Eastern Test Range (AFETR). Payload-class satellites include a variety of spacecraft equipped with specific instruments for various scientific and technological missions. These include communications satellites like Starlink; space stations such as the ISS; scientific satellites like the Hubble; Earth observation satellites from companies like Planet Labs, Umbra, and HawkEye 360; GPS; miniature CubeSats for education and research; and military/defense satellites.

Loading next visibility...
Identifier
1726, 1965-089A
Orbit
LEO
Country
Flag of USUS
Related business
Manufacturer
APL
Mission
Civil Geodetic
Bus & Motor
ANNA, Unknown motor
Mass
176 kg wet, 176 kg dry
Launch date (UTC)
1965-11-06 (60 years ago)
Launch vehicle
THOR DELTA E
Launch site
Air Force Eastern Test Range (AFETR)
Object type
Payload
Rocket body
Debris
Shape & HBR
Oct Cyl + 1 Dome + 1 Rod, 7.5 m
Radar Cross Section
1.519 m², Large (>1 m²)

Expand to show TLE details & history
Last TLE update: 14 hours ago

TLE from 14 hours ago
0 EXPLORER 29 (GEOS 1)
1 01726U 65089A   25259.04013052 -.00000071  00000-0  32455-4 0  9994
2 01726  59.3782 285.3742 0718240  42.1001 339.9304 11.97070583616840
Epoch: 2025-09-16T00:57Z
TLE epoch observation values (Epoch: 2025-09-16T00:57:47.276Z)
Latitude
16.23806°
Longitude
-74.43368°
Altitude
1,155.523 km
Speed
7.516 km/s
True Right ascension
19h 40m 59s
True Declination
16° 09' 03"
Sunlit
Object was in daylight at epoch
Visualization orbit readout
Latitude
Unknown
Longitude
Unknown
Altitude
Unknown
Speed
Unknown
Apparent Right ascension
Unknown
Apparent Declination
Unknown
Sunlit
N/A
Visualization observer readout
Local Sidereal Time
07:46:55
Azimuth
Unknown
Elevation
Unknown
Doppler factor
Unknown
Orbital elements
Apogee altitude
2,273.128 km
Perigee altitude
1,113.668 km
Semi-major axis
8,071.535 km
Eccentricity
0.07182
Inclination
59.3782°
RAAN
285.3742°
Arg. of periapsis
42.1001°
True anomaly
336.8485°
Mean anomaly
339.9304°
Eccentric anomaly
338.4166°
Mean motion
2.99302 °/min
Orbital period
120.28 mins
BSTAR
0.000032455
Loading maneuver chart data...
Computing Atmospheric mass density...
Loading historical data...
Loading historical data...
Loading historical data...
Loading historical data...
Loading historical data...
Loading historical data...
Loading historical data...

Documentation

Showing up to 5 results
|